Year,Month,Day,Hour,Minute,Value (Times are PST for windspeed in km/hr)
2020,03,13,00,00,0.00
2020,03,13,00,01,0.70
2020,03,13,00,02,2.40
2020,03,13,00,03,1.70
2020,03,13,00,04,1.80
2020,03,13,00,05,0.50
2020,03,13,00,06,0.00
2020,03,13,00,07,0.00
2020,03,13,00,08,0.00
2020,03,13,00,09,0.50
2020,03,13,00,10,2.20
2020,03,13,00,11,2.80
2020,03,13,00,12,2.60
2020,03,13,00,13,2.10
2020,03,13,00,14,2.50
2020,03,13,00,15,1.40
2020,03,13,00,16,0.00
2020,03,13,00,17,0.00
2020,03,13,00,18,1.80
2020,03,13,00,19,3.00
2020,03,13,00,20,2.20
2020,03,13,00,21,1.20
2020,03,13,00,22,0.00
2020,03,13,00,23,0.10
2020,03,13,00,24,1.40
2020,03,13,00,25,2.30
2020,03,13,00,26,2.50
2020,03,13,00,27,1.80
2020,03,13,00,28,2.20
2020,03,13,00,29,2.10
2020,03,13,00,30,2.30
2020,03,13,00,31,2.50
2020,03,13,00,32,1.60
2020,03,13,00,33,1.40
2020,03,13,00,34,0.10
2020,03,13,00,35,0.00
2020,03,13,00,36,0.00
2020,03,13,00,37,0.00
2020,03,13,00,38,2.10
2020,03,13,00,39,3.00
2020,03,13,00,40,2.90
2020,03,13,00,41,2.20
2020,03,13,00,42,3.00
2020,03,13,00,43,2.50
2020,03,13,00,44,1.90
2020,03,13,00,45,2.70
2020,03,13,00,46,1.80
2020,03,13,00,47,0.10
2020,03,13,00,48,0.00
2020,03,13,00,49,0.00
2020,03,13,00,50,0.00
2020,03,13,00,51,1.90
2020,03,13,00,52,1.30
2020,03,13,00,53,2.90
2020,03,13,00,54,2.40
2020,03,13,00,55,2.10
2020,03,13,00,56,0.20
2020,03,13,00,57,0.00
2020,03,13,00,58,0.00
2020,03,13,00,59,0.00
2020,03,13,01,00,0.00
2020,03,13,01,01,0.00
2020,03,13,01,02,0.00
2020,03,13,01,03,1.70
2020,03,13,01,04,2.60
2020,03,13,01,05,2.60
2020,03,13,01,06,1.80
2020,03,13,01,07,0.60
2020,03,13,01,08,1.10
2020,03,13,01,09,0.40
2020,03,13,01,10,0.00
2020,03,13,01,11,0.00
2020,03,13,01,12,0.00
2020,03,13,01,13,0.00
2020,03,13,01,14,0.00
2020,03,13,01,15,0.00
2020,03,13,01,16,1.50
2020,03,13,01,17,1.60
2020,03,13,01,18,0.00
2020,03,13,01,19,1.10
2020,03,13,01,20,1.40
2020,03,13,01,21,0.00
2020,03,13,01,22,0.20
2020,03,13,01,23,1.40
2020,03,13,01,24,0.00
2020,03,13,01,25,0.00
2020,03,13,01,26,0.00
2020,03,13,01,27,0.00
2020,03,13,01,28,0.00
2020,03,13,01,29,0.00
2020,03,13,01,30,0.20
2020,03,13,01,31,2.70
2020,03,13,01,32,1.80
2020,03,13,01,33,1.90
2020,03,13,01,34,2.70
2020,03,13,01,35,2.60
2020,03,13,01,36,0.60
2020,03,13,01,37,1.90
2020,03,13,01,38,0.00
2020,03,13,01,39,0.00
2020,03,13,01,40,0.00
2020,03,13,01,41,1.20
2020,03,13,01,42,3.40
2020,03,13,01,43,2.20
2020,03,13,01,44,1.40
2020,03,13,01,45,2.00
2020,03,13,01,46,1.90
2020,03,13,01,47,2.00
2020,03,13,01,48,1.80
2020,03,13,01,49,1.70
2020,03,13,01,50,2.80
2020,03,13,01,51,2.50
2020,03,13,01,52,1.60
2020,03,13,01,53,0.00
2020,03,13,01,54,0.00
2020,03,13,01,55,0.00
2020,03,13,01,56,1.40
2020,03,13,01,57,4.10
2020,03,13,01,58,2.10
2020,03,13,01,59,2.00
2020,03,13,02,00,2.00
2020,03,13,02,01,2.00
2020,03,13,02,02,1.80
2020,03,13,02,03,0.40
2020,03,13,02,04,1.90
2020,03,13,02,05,1.60
2020,03,13,02,06,0.00
2020,03,13,02,07,0.80
2020,03,13,02,08,0.00
2020,03,13,02,09,0.00
2020,03,13,02,10,2.00
2020,03,13,02,11,1.70
2020,03,13,02,12,1.30
2020,03,13,02,13,0.00
2020,03,13,02,14,0.00
2020,03,13,02,15,0.00
2020,03,13,02,16,1.00
2020,03,13,02,17,0.00
2020,03,13,02,18,0.00
2020,03,13,02,19,0.10
2020,03,13,02,20,0.00
2020,03,13,02,21,0.00
2020,03,13,02,22,0.00
2020,03,13,02,23,0.00
2020,03,13,02,24,0.00
2020,03,13,02,25,0.00
2020,03,13,02,26,0.00
2020,03,13,02,27,0.00
2020,03,13,02,28,0.00
2020,03,13,02,29,0.00
2020,03,13,02,30,0.30
2020,03,13,02,31,2.80
2020,03,13,02,32,2.20
2020,03,13,02,33,2.00
2020,03,13,02,34,1.00
2020,03,13,02,35,0.00
2020,03,13,02,36,1.40
2020,03,13,02,37,2.70
2020,03,13,02,38,2.40
2020,03,13,02,39,0.30
2020,03,13,02,40,0.00
2020,03,13,02,41,0.00
2020,03,13,02,42,0.00
2020,03,13,02,43,0.00
2020,03,13,02,44,0.20
2020,03,13,02,45,3.20
2020,03,13,02,46,3.60
2020,03,13,02,47,2.30
2020,03,13,02,48,0.90
2020,03,13,02,49,1.10
2020,03,13,02,50,0.70
2020,03,13,02,51,0.00
2020,03,13,02,52,0.00
2020,03,13,02,53,0.00
2020,03,13,02,54,0.00
2020,03,13,02,55,0.00
2020,03,13,02,56,0.00
2020,03,13,02,57,0.00
2020,03,13,02,58,1.40
2020,03,13,02,59,2.00
2020,03,13,03,00,0.60
2020,03,13,03,01,0.00
2020,03,13,03,02,0.00
2020,03,13,03,03,0.90
2020,03,13,03,04,1.40
2020,03,13,03,05,0.00
2020,03,13,03,06,1.20
2020,03,13,03,07,2.20
2020,03,13,03,08,1.00
2020,03,13,03,09,0.00
2020,03,13,03,10,0.00
2020,03,13,03,11,0.00
2020,03,13,03,12,1.60
2020,03,13,03,13,0.90
2020,03,13,03,14,0.00
2020,03,13,03,15,0.00
2020,03,13,03,16,0.00
2020,03,13,03,17,0.00
2020,03,13,03,18,0.00
2020,03,13,03,19,2.30
2020,03,13,03,20,2.50
2020,03,13,03,21,1.40
2020,03,13,03,22,0.00
2020,03,13,03,23,1.00
2020,03,13,03,24,2.20
2020,03,13,03,25,1.40
2020,03,13,03,26,0.00
2020,03,13,03,27,1.00
2020,03,13,03,28,0.00
2020,03,13,03,29,0.00
2020,03,13,03,30,0.00
2020,03,13,03,31,0.80
2020,03,13,03,32,2.30
2020,03,13,03,33,0.30
2020,03,13,03,34,0.00
2020,03,13,03,35,1.30
2020,03,13,03,36,0.80
2020,03,13,03,37,0.00
2020,03,13,03,38,1.80
2020,03,13,03,39,0.30
2020,03,13,03,40,2.00
2020,03,13,03,41,3.60
2020,03,13,03,42,2.40
2020,03,13,03,43,0.00
2020,03,13,03,44,1.40
2020,03,13,03,45,1.30
2020,03,13,03,46,1.00
2020,03,13,03,47,3.20
2020,03,13,03,48,1.70
2020,03,13,03,49,0.00
2020,03,13,03,50,0.00
2020,03,13,03,51,0.60
2020,03,13,03,52,0.40
2020,03,13,03,53,0.00
2020,03,13,03,54,0.00
2020,03,13,03,55,0.00
2020,03,13,03,56,1.00
2020,03,13,03,57,1.10
2020,03,13,03,58,0.00
2020,03,13,03,59,0.50
2020,03,13,04,00,0.00
2020,03,13,04,01,0.00
2020,03,13,04,02,0.00
2020,03,13,04,03,0.00
2020,03,13,04,04,0.00
2020,03,13,04,05,0.00
2020,03,13,04,06,0.00
2020,03,13,04,07,0.00
2020,03,13,04,08,1.10
2020,03,13,04,09,2.20
2020,03,13,04,10,1.50
2020,03,13,04,11,0.00
2020,03,13,04,12,0.00
2020,03,13,04,13,0.00
2020,03,13,04,14,0.00
2020,03,13,04,15,0.00
2020,03,13,04,16,0.00
2020,03,13,04,17,0.00
2020,03,13,04,18,0.00
2020,03,13,04,19,0.00
2020,03,13,04,20,0.00
2020,03,13,04,21,0.00
2020,03,13,04,22,0.00
2020,03,13,04,23,0.00
2020,03,13,04,24,0.00
2020,03,13,04,25,0.00
2020,03,13,04,26,0.00
2020,03,13,04,27,0.00
2020,03,13,04,28,0.00
2020,03,13,04,29,0.00
2020,03,13,04,30,0.00
2020,03,13,04,31,0.00
2020,03,13,04,32,0.00
2020,03,13,04,33,0.00
2020,03,13,04,34,0.20
2020,03,13,04,35,1.60
2020,03,13,04,36,1.30
2020,03,13,04,37,0.10
2020,03,13,04,38,0.00
2020,03,13,04,39,0.00
2020,03,13,04,40,0.00
2020,03,13,04,41,0.00
2020,03,13,04,42,0.00
2020,03,13,04,43,0.00
2020,03,13,04,44,0.00
2020,03,13,04,45,0.00
2020,03,13,04,46,0.00
2020,03,13,04,47,0.00
2020,03,13,04,48,0.00
2020,03,13,04,49,0.00
2020,03,13,04,50,0.00
2020,03,13,04,51,0.00
2020,03,13,04,52,0.00
2020,03,13,04,53,0.00
2020,03,13,04,54,0.00
2020,03,13,04,55,0.00
2020,03,13,04,56,0.00
2020,03,13,04,57,0.00
2020,03,13,04,58,0.00
2020,03,13,04,59,0.00
2020,03,13,05,00,0.00
2020,03,13,05,01,0.00
2020,03,13,05,02,1.50
2020,03,13,05,03,0.00
2020,03,13,05,04,0.00
2020,03,13,05,05,0.00
2020,03,13,05,06,0.60
2020,03,13,05,07,2.10
2020,03,13,05,08,1.60
2020,03,13,05,09,0.50
2020,03,13,05,10,0.00
2020,03,13,05,11,0.00
2020,03,13,05,12,0.00
2020,03,13,05,13,0.00
2020,03,13,05,14,0.00
2020,03,13,05,15,0.00
2020,03,13,05,16,0.00
2020,03,13,05,17,0.00
2020,03,13,05,18,0.00
2020,03,13,05,19,0.00
2020,03,13,05,20,0.00
2020,03,13,05,21,0.00
2020,03,13,05,22,1.70
2020,03,13,05,23,1.90
2020,03,13,05,24,0.20
2020,03,13,05,25,0.00
2020,03,13,05,26,0.00
2020,03,13,05,27,0.00
2020,03,13,05,28,0.00
2020,03,13,05,29,0.00
2020,03,13,05,30,0.00
2020,03,13,05,31,0.00
2020,03,13,05,32,0.00
2020,03,13,05,33,0.00
2020,03,13,05,34,0.00
2020,03,13,05,35,0.00
2020,03,13,05,36,0.00
2020,03,13,05,37,0.00
2020,03,13,05,38,0.00
2020,03,13,05,39,0.00
2020,03,13,05,40,0.00
2020,03,13,05,41,0.00
2020,03,13,05,42,0.00
2020,03,13,05,43,0.30
2020,03,13,05,44,3.00
2020,03,13,05,45,1.40
2020,03,13,05,46,0.00
2020,03,13,05,47,0.00
2020,03,13,05,48,0.00
2020,03,13,05,49,0.00
2020,03,13,05,50,0.00
2020,03,13,05,51,0.00
2020,03,13,05,52,0.00
2020,03,13,05,53,0.00
2020,03,13,05,54,0.00
2020,03,13,05,55,0.00
2020,03,13,05,56,0.00
2020,03,13,05,57,0.00
2020,03,13,05,58,0.00
2020,03,13,05,59,2.40
2020,03,13,06,00,1.00
2020,03,13,06,01,0.00
2020,03,13,06,02,0.00
2020,03,13,06,03,0.00
2020,03,13,06,04,0.00
2020,03,13,06,05,0.00
2020,03,13,06,06,0.00
2020,03,13,06,07,0.00
2020,03,13,06,08,0.00
2020,03,13,06,09,0.00
2020,03,13,06,10,0.00
2020,03,13,06,11,1.90
2020,03,13,06,12,2.40
2020,03,13,06,13,2.20
2020,03,13,06,14,1.30
2020,03,13,06,15,0.00
2020,03,13,06,16,0.00
2020,03,13,06,17,0.00
2020,03,13,06,18,0.00
2020,03,13,06,19,0.00
2020,03,13,06,20,0.00
2020,03,13,06,21,0.10
2020,03,13,06,22,0.90
2020,03,13,06,23,0.00
2020,03,13,06,24,0.00
2020,03,13,06,25,0.10
2020,03,13,06,26,0.00
2020,03,13,06,27,1.50
2020,03,13,06,28,0.50
2020,03,13,06,29,0.00
2020,03,13,06,30,0.00
2020,03,13,06,31,0.00
2020,03,13,06,32,0.00
2020,03,13,06,33,0.10
2020,03,13,06,34,0.00
2020,03,13,06,35,0.00
2020,03,13,06,36,1.10
2020,03,13,06,37,0.00
2020,03,13,06,38,0.00
2020,03,13,06,39,0.00
2020,03,13,06,40,0.00
2020,03,13,06,41,0.00
2020,03,13,06,42,0.00
2020,03,13,06,43,0.00
2020,03,13,06,44,0.00
2020,03,13,06,45,0.00
2020,03,13,06,46,3.20
2020,03,13,06,47,2.60
2020,03,13,06,48,1.20
2020,03,13,06,49,0.20
2020,03,13,06,50,0.00
2020,03,13,06,51,0.00
2020,03,13,06,52,0.00
2020,03,13,06,53,0.00
2020,03,13,06,54,0.00
2020,03,13,06,55,0.00
2020,03,13,06,56,0.00
2020,03,13,06,57,0.00
2020,03,13,06,58,0.00
2020,03,13,06,59,0.00
2020,03,13,07,00,0.00
2020,03,13,07,01,0.00
2020,03,13,07,02,0.00
2020,03,13,07,03,0.00
2020,03,13,07,04,0.00
2020,03,13,07,05,0.00
2020,03,13,07,06,0.00
2020,03,13,07,07,0.00
2020,03,13,07,08,0.00
2020,03,13,07,09,0.00
2020,03,13,07,10,0.00
2020,03,13,07,11,0.00
2020,03,13,07,12,0.00
2020,03,13,07,13,0.00
2020,03,13,07,14,0.00
2020,03,13,07,15,0.00
2020,03,13,07,16,0.00
2020,03,13,07,17,0.00
2020,03,13,07,18,0.00
2020,03,13,07,19,0.00
2020,03,13,07,20,0.00
2020,03,13,07,21,0.00
2020,03,13,07,22,0.00
2020,03,13,07,23,0.00
2020,03,13,07,24,0.60
2020,03,13,07,25,2.30
2020,03,13,07,26,1.40
2020,03,13,07,27,0.00
2020,03,13,07,28,0.00
2020,03,13,07,29,0.00
2020,03,13,07,30,0.10
2020,03,13,07,31,2.10
2020,03,13,07,32,0.30
2020,03,13,07,33,0.00
2020,03,13,07,34,0.30
2020,03,13,07,35,0.90
2020,03,13,07,36,0.00
2020,03,13,07,37,0.00
2020,03,13,07,38,0.00
2020,03,13,07,39,0.00
2020,03,13,07,40,0.00
2020,03,13,07,41,0.00
2020,03,13,07,42,0.00
2020,03,13,07,43,0.00
2020,03,13,07,44,0.00
2020,03,13,07,45,0.00
2020,03,13,07,46,0.00
2020,03,13,07,47,0.00
2020,03,13,07,48,0.00
2020,03,13,07,49,0.00
2020,03,13,07,50,0.00
2020,03,13,07,51,0.00
2020,03,13,07,52,0.00
2020,03,13,07,53,0.00
2020,03,13,07,54,0.00
2020,03,13,07,55,0.00
2020,03,13,07,56,0.00
2020,03,13,07,57,1.30
2020,03,13,07,58,2.10
2020,03,13,07,59,0.10
2020,03,13,08,00,0.00
2020,03,13,08,01,0.60
2020,03,13,08,02,4.10
2020,03,13,08,03,3.50
2020,03,13,08,04,2.10
2020,03,13,08,05,2.90
2020,03,13,08,06,0.10
2020,03,13,08,07,0.00
2020,03,13,08,08,0.00
2020,03,13,08,09,0.00
2020,03,13,08,10,0.00
2020,03,13,08,11,0.00
2020,03,13,08,12,0.00
2020,03,13,08,13,0.00
2020,03,13,08,14,1.40
2020,03,13,08,15,2.50
2020,03,13,08,16,0.00
2020,03,13,08,17,0.00
2020,03,13,08,18,0.00
2020,03,13,08,19,0.00
2020,03,13,08,20,0.00
2020,03,13,08,21,0.00
2020,03,13,08,22,0.00
2020,03,13,08,23,0.00
2020,03,13,08,24,0.00
2020,03,13,08,25,0.00
2020,03,13,08,26,0.00
2020,03,13,08,27,0.00
2020,03,13,08,28,2.50
2020,03,13,08,29,0.90
2020,03,13,08,30,0.00
2020,03,13,08,31,0.00
2020,03,13,08,32,0.10
2020,03,13,08,33,0.00
2020,03,13,08,34,0.00
2020,03,13,08,35,0.00
2020,03,13,08,36,0.00
2020,03,13,08,37,0.10
2020,03,13,08,38,3.80
2020,03,13,08,39,2.60
2020,03,13,08,40,3.60
2020,03,13,08,41,3.30
2020,03,13,08,42,0.00
2020,03,13,08,43,1.40
2020,03,13,08,44,2.00
2020,03,13,08,45,0.90
2020,03,13,08,46,0.00
2020,03,13,08,47,0.00
2020,03,13,08,48,0.00
2020,03,13,08,49,0.00
2020,03,13,08,50,0.30
2020,03,13,08,51,1.40
2020,03,13,08,52,0.00
2020,03,13,08,53,2.00
2020,03,13,08,54,0.20
2020,03,13,08,55,0.00
2020,03,13,08,56,0.00
2020,03,13,08,57,0.00
2020,03,13,08,58,3.00
2020,03,13,08,59,3.10
2020,03,13,09,00,0.00
2020,03,13,09,01,0.00
2020,03,13,09,02,1.50
2020,03,13,09,03,0.00
2020,03,13,09,04,0.00
2020,03,13,09,05,0.60
2020,03,13,09,06,2.30
2020,03,13,09,07,1.40
2020,03,13,09,08,1.80
2020,03,13,09,09,1.40
2020,03,13,09,10,3.40
2020,03,13,09,11,3.10
2020,03,13,09,12,1.70
2020,03,13,09,13,0.50
2020,03,13,09,14,3.50
2020,03,13,09,15,3.20
2020,03,13,09,16,0.00
2020,03,13,09,17,4.80
2020,03,13,09,18,3.70
2020,03,13,09,19,6.00
2020,03,13,09,20,4.40
2020,03,13,09,21,3.00
2020,03,13,09,22,0.80
2020,03,13,09,23,4.90
2020,03,13,09,24,6.30
2020,03,13,09,25,5.30
2020,03,13,09,26,4.80
2020,03,13,09,27,6.90
2020,03,13,09,28,7.20
2020,03,13,09,29,3.40
2020,03,13,09,30,4.10
2020,03,13,09,31,1.00
2020,03,13,09,32,2.80
2020,03,13,09,33,2.40
2020,03,13,09,34,0.70
2020,03,13,09,35,5.00
2020,03,13,09,36,4.10
2020,03,13,09,37,4.50
2020,03,13,09,38,3.90
2020,03,13,09,39,4.80
2020,03,13,09,40,4.90
2020,03,13,09,41,5.90
2020,03,13,09,42,3.20
2020,03,13,09,43,2.70
2020,03,13,09,44,3.80
2020,03,13,09,45,4.20
2020,03,13,09,46,2.70
2020,03,13,09,47,4.70
2020,03,13,09,48,1.00
2020,03,13,09,49,5.60
2020,03,13,09,50,4.70
2020,03,13,09,51,3.60
2020,03,13,09,52,5.80
2020,03,13,09,53,3.60
2020,03,13,09,54,4.20
2020,03,13,09,55,3.60
2020,03,13,09,56,2.80
2020,03,13,09,57,4.70
2020,03,13,09,58,0.30
2020,03,13,09,59,0.80
2020,03,13,10,00,2.60
2020,03,13,10,01,4.70
2020,03,13,10,02,7.80
2020,03,13,10,03,4.20
2020,03,13,10,04,7.10
2020,03,13,10,05,6.30
2020,03,13,10,06,3.50
2020,03,13,10,07,2.90
2020,03,13,10,08,4.40
2020,03,13,10,09,3.90
2020,03,13,10,10,4.80
2020,03,13,10,11,4.30
2020,03,13,10,12,4.40
2020,03,13,10,13,0.30
2020,03,13,10,14,0.50
2020,03,13,10,15,6.20
2020,03,13,10,16,5.70
2020,03,13,10,17,9.70
2020,03,13,10,18,4.70
2020,03,13,10,19,4.30
2020,03,13,10,20,3.10
2020,03,13,10,21,4.40
2020,03,13,10,22,4.30
2020,03,13,10,23,4.00
2020,03,13,10,24,4.30
2020,03,13,10,25,0.60
2020,03,13,10,26,0.00
2020,03,13,10,27,0.10
2020,03,13,10,28,0.00
2020,03,13,10,29,4.40
2020,03,13,10,30,3.20
2020,03,13,10,31,2.50
2020,03,13,10,32,2.60
2020,03,13,10,33,1.50
2020,03,13,10,34,3.00
2020,03,13,10,35,1.50
2020,03,13,10,36,5.30
2020,03,13,10,37,2.70
2020,03,13,10,38,0.10
2020,03,13,10,39,2.40
2020,03,13,10,40,4.20
2020,03,13,10,41,4.30
2020,03,13,10,42,3.10
2020,03,13,10,43,5.40
2020,03,13,10,44,4.20
2020,03,13,10,45,6.90
2020,03,13,10,46,8.80
2020,03,13,10,47,0.30
2020,03,13,10,48,0.10
2020,03,13,10,49,3.00
2020,03,13,10,50,1.00
2020,03,13,10,51,0.00
2020,03,13,10,52,0.90
2020,03,13,10,53,6.20
2020,03,13,10,54,7.40
2020,03,13,10,55,1.50
2020,03,13,10,56,5.00
2020,03,13,10,57,8.60
2020,03,13,10,58,6.70
2020,03,13,10,59,16.50
2020,03,13,11,00,17.90
2020,03,13,11,01,12.10
2020,03,13,11,02,6.80
2020,03,13,11,03,9.30
2020,03,13,11,04,14.50
2020,03,13,11,05,4.70
2020,03,13,11,06,1.10
2020,03,13,11,07,8.90
2020,03,13,11,08,10.20
2020,03,13,11,09,5.30
2020,03,13,11,10,3.10
2020,03,13,11,11,7.80
2020,03,13,11,12,10.10
2020,03,13,11,13,12.50
2020,03,13,11,14,13.90
2020,03,13,11,15,29.10
2020,03,13,11,16,14.10
2020,03,13,11,17,18.70
2020,03,13,11,18,17.40
2020,03,13,11,19,12.30
2020,03,13,11,20,11.70
2020,03,13,11,21,13.40
2020,03,13,11,22,16.60
2020,03,13,11,23,14.90
2020,03,13,11,24,14.00
2020,03,13,11,25,4.50
2020,03,13,11,26,12.50
2020,03,13,11,27,11.70
2020,03,13,11,28,17.10
2020,03,13,11,29,18.00
2020,03,13,11,30,8.60
2020,03,13,11,31,8.50
2020,03,13,11,32,13.00
2020,03,13,11,33,19.80
2020,03,13,11,34,4.00
2020,03,13,11,35,10.40
2020,03,13,11,36,12.60
2020,03,13,11,37,13.00
2020,03,13,11,38,2.50
2020,03,13,11,39,7.50
2020,03,13,11,40,6.90
2020,03,13,11,41,15.30
2020,03,13,11,42,15.40
2020,03,13,11,43,9.40
2020,03,13,11,44,18.60
2020,03,13,11,45,19.40
2020,03,13,11,46,10.30
2020,03,13,11,47,10.40
2020,03,13,11,48,9.30
2020,03,13,11,49,10.80
2020,03,13,11,50,11.80
2020,03,13,11,51,5.60
2020,03,13,11,52,2.70
2020,03,13,11,53,10.20
2020,03,13,11,54,11.30
2020,03,13,11,55,4.00
2020,03,13,11,56,10.10
2020,03,13,11,57,4.70
2020,03,13,11,58,5.50
2020,03,13,11,59,13.10
2020,03,13,12,00,11.20
2020,03,13,12,01,3.10
2020,03,13,12,02,12.70
2020,03,13,12,03,7.10
2020,03,13,12,04,5.80
2020,03,13,12,05,19.60
2020,03,13,12,06,5.80
2020,03,13,12,07,4.10
2020,03,13,12,08,8.90
2020,03,13,12,09,4.90
2020,03,13,12,10,4.80
2020,03,13,12,11,8.10
2020,03,13,12,12,3.10
2020,03,13,12,13,7.90
2020,03,13,12,14,18.30
2020,03,13,12,15,15.70
2020,03,13,12,16,13.20
2020,03,13,12,17,11.60
2020,03,13,12,18,15.40
2020,03,13,12,19,9.20
2020,03,13,12,20,12.50
2020,03,13,12,21,9.80
2020,03,13,12,22,7.10
2020,03,13,12,23,4.80
2020,03,13,12,24,11.00
2020,03,13,12,25,17.40
2020,03,13,12,26,18.00
2020,03,13,12,27,9.90
2020,03,13,12,28,1.80
2020,03,13,12,29,6.90
2020,03,13,12,30,7.00
2020,03,13,12,31,9.70
2020,03,13,12,32,11.40
2020,03,13,12,33,14.40
2020,03,13,12,34,29.30
2020,03,13,12,35,11.70
2020,03,13,12,36,17.40
2020,03,13,12,37,11.20
2020,03,13,12,38,5.20
2020,03,13,12,39,11.70
2020,03,13,12,40,6.00
2020,03,13,12,41,12.00
2020,03,13,12,42,9.70
2020,03,13,12,43,12.70
2020,03,13,12,44,4.20
2020,03,13,12,45,15.00
2020,03,13,12,46,22.10
2020,03,13,12,47,4.40
2020,03,13,12,48,2.40
2020,03,13,12,49,4.30
2020,03,13,12,50,12.80
2020,03,13,12,51,13.80
2020,03,13,12,52,13.90
2020,03,13,12,53,9.50
2020,03,13,12,54,6.40
2020,03,13,12,55,6.20
2020,03,13,12,56,5.80
2020,03,13,12,57,9.00
2020,03,13,12,58,17.60
2020,03,13,12,59,18.60
2020,03,13,13,00,18.20
2020,03,13,13,01,13.00
2020,03,13,13,02,10.30
2020,03,13,13,03,2.80
2020,03,13,13,04,5.40
2020,03,13,13,05,10.80
2020,03,13,13,06,7.70
2020,03,13,13,07,6.50
2020,03,13,13,08,10.80
2020,03,13,13,09,26.00
2020,03,13,13,10,19.10
2020,03,13,13,11,6.80
2020,03,13,13,12,17.90
2020,03,13,13,13,18.00
2020,03,13,13,14,20.40
2020,03,13,13,15,14.50
2020,03,13,13,16,10.20
2020,03,13,13,17,6.90
2020,03,13,13,18,6.50
2020,03,13,13,19,7.30
2020,03,13,13,20,12.20
2020,03,13,13,21,11.40
2020,03,13,13,22,19.30
2020,03,13,13,23,16.90
2020,03,13,13,24,14.00
2020,03,13,13,25,17.90
2020,03,13,13,26,11.90
2020,03,13,13,27,14.70
2020,03,13,13,28,27.00
2020,03,13,13,29,21.40
2020,03,13,13,30,27.70
2020,03,13,13,31,16.20
2020,03,13,13,32,5.10
2020,03,13,13,33,21.90
2020,03,13,13,34,6.40
2020,03,13,13,35,13.80
2020,03,13,13,36,13.00
2020,03,13,13,37,11.50
2020,03,13,13,38,11.10
2020,03,13,13,39,12.60
2020,03,13,13,40,10.40
2020,03,13,13,41,6.30
2020,03,13,13,42,10.00
2020,03,13,13,43,7.10
2020,03,13,13,44,10.90
2020,03,13,13,45,7.10
2020,03,13,13,46,8.60
2020,03,13,13,47,13.50
2020,03,13,13,48,16.30
2020,03,13,13,49,17.70
2020,03,13,13,50,9.20
2020,03,13,13,51,10.30
2020,03,13,13,52,4.20
2020,03,13,13,53,5.80
2020,03,13,13,54,5.00
2020,03,13,13,55,15.50
2020,03,13,13,56,14.00
2020,03,13,13,57,19.90
2020,03,13,13,58,15.90
2020,03,13,13,59,12.40
2020,03,13,14,00,7.70
2020,03,13,14,01,6.40
2020,03,13,14,02,9.70
2020,03,13,14,03,10.10
2020,03,13,14,04,4.10
2020,03,13,14,05,6.40
2020,03,13,14,06,7.30
2020,03,13,14,07,9.30
2020,03,13,14,08,1.90
2020,03,13,14,09,14.50
2020,03,13,14,10,16.70
2020,03,13,14,11,6.90
2020,03,13,14,12,11.90
2020,03,13,14,13,6.00
2020,03,13,14,14,23.50
2020,03,13,14,15,11.00
2020,03,13,14,16,10.10
2020,03,13,14,17,8.90
2020,03,13,14,18,0.20
2020,03,13,14,19,5.30
2020,03,13,14,20,6.30
2020,03,13,14,21,11.60
2020,03,13,14,22,15.90
2020,03,13,14,23,6.90
2020,03,13,14,24,9.70
2020,03,13,14,25,7.20
2020,03,13,14,26,3.80
2020,03,13,14,27,9.40
2020,03,13,14,28,9.70
2020,03,13,14,29,7.30
2020,03,13,14,30,14.80
2020,03,13,14,31,18.00
2020,03,13,14,32,7.30
2020,03,13,14,33,10.10
2020,03,13,14,34,14.70
2020,03,13,14,35,16.90
2020,03,13,14,36,9.50
2020,03,13,14,37,5.00
2020,03,13,14,38,6.40
2020,03,13,14,39,8.60
2020,03,13,14,40,8.70
2020,03,13,14,41,20.40
2020,03,13,14,42,9.10
2020,03,13,14,43,11.20
2020,03,13,14,44,17.50
2020,03,13,14,45,6.20
2020,03,13,14,46,7.20
2020,03,13,14,47,4.60
2020,03,13,14,48,14.70
2020,03,13,14,49,9.60
2020,03,13,14,50,12.90
2020,03,13,14,51,1.80
2020,03,13,14,52,8.90
2020,03,13,14,53,14.50
2020,03,13,14,54,21.30
2020,03,13,14,55,15.60
2020,03,13,14,56,8.00
2020,03,13,14,57,5.90
2020,03,13,14,58,5.20
2020,03,13,14,59,6.50
2020,03,13,15,00,8.20
2020,03,13,15,01,14.30
2020,03,13,15,02,15.00
2020,03,13,15,03,6.60
2020,03,13,15,04,12.70
2020,03,13,15,05,10.80
2020,03,13,15,06,10.10
2020,03,13,15,07,24.10
2020,03,13,15,08,7.80
2020,03,13,15,09,10.50
2020,03,13,15,10,13.60
2020,03,13,15,11,16.50
2020,03,13,15,12,15.20
2020,03,13,15,13,14.10
2020,03,13,15,14,13.80
2020,03,13,15,15,14.30
2020,03,13,15,16,19.10
2020,03,13,15,17,17.40
2020,03,13,15,18,8.90
2020,03,13,15,19,0.90
2020,03,13,15,20,1.90
2020,03,13,15,21,9.10
2020,03,13,15,22,15.40
2020,03,13,15,23,18.60
2020,03,13,15,24,14.30
2020,03,13,15,25,16.60
2020,03,13,15,26,9.70
2020,03,13,15,27,12.60
2020,03,13,15,28,10.70
2020,03,13,15,29,15.40
2020,03,13,15,30,18.20
2020,03,13,15,31,8.00
2020,03,13,15,32,6.40
2020,03,13,15,33,19.70
2020,03,13,15,34,20.00
2020,03,13,15,35,15.40
2020,03,13,15,36,14.30
2020,03,13,15,37,19.10
2020,03,13,15,38,19.40
2020,03,13,15,39,17.60
2020,03,13,15,40,17.10
2020,03,13,15,41,18.00
2020,03,13,15,42,11.50
2020,03,13,15,43,8.60
2020,03,13,15,44,15.70
2020,03,13,15,45,17.30
2020,03,13,15,46,16.90
2020,03,13,15,47,12.20
2020,03,13,15,48,15.60
2020,03,13,15,49,18.00
2020,03,13,15,50,16.30
2020,03,13,15,51,11.60
2020,03,13,15,52,18.30
2020,03,13,15,53,3.00
2020,03,13,15,54,12.00
2020,03,13,15,55,17.70
2020,03,13,15,56,11.70
2020,03,13,15,57,15.70
2020,03,13,15,58,9.70
2020,03,13,15,59,12.50
2020,03,13,16,00,20.20
2020,03,13,16,01,14.50
2020,03,13,16,02,19.60
2020,03,13,16,03,20.40
2020,03,13,16,04,13.00
2020,03,13,16,05,7.50
2020,03,13,16,06,12.90
2020,03,13,16,07,4.40
2020,03,13,16,08,8.70
2020,03,13,16,09,17.50
2020,03,13,16,10,15.10
2020,03,13,16,11,13.40
2020,03,13,16,12,18.00
2020,03,13,16,13,20.40
2020,03,13,16,14,15.80
2020,03,13,16,15,22.30
2020,03,13,16,16,21.50
2020,03,13,16,17,14.00
2020,03,13,16,18,17.40
2020,03,13,16,19,21.60
2020,03,13,16,20,13.80
2020,03,13,16,21,5.30
2020,03,13,16,22,2.50
2020,03,13,16,23,3.20
2020,03,13,16,24,6.80
2020,03,13,16,25,9.60
2020,03,13,16,26,9.70
2020,03,13,16,27,9.50
2020,03,13,16,28,11.60
2020,03,13,16,29,11.20
2020,03,13,16,30,6.50
2020,03,13,16,31,12.00
2020,03,13,16,32,17.60
2020,03,13,16,33,18.10
2020,03,13,16,34,13.40
2020,03,13,16,35,12.40
2020,03,13,16,36,27.00
2020,03,13,16,37,22.00
2020,03,13,16,38,21.10
2020,03,13,16,39,11.10
2020,03,13,16,40,4.50
2020,03,13,16,41,0.60
2020,03,13,16,42,7.50
2020,03,13,16,43,3.90
2020,03,13,16,44,3.10
2020,03,13,16,45,5.80
2020,03,13,16,46,2.90
2020,03,13,16,47,9.20
2020,03,13,16,48,5.40
2020,03,13,16,49,15.60
2020,03,13,16,50,14.70
2020,03,13,16,51,5.10
2020,03,13,16,52,7.40
2020,03,13,16,53,2.70
2020,03,13,16,54,11.90
2020,03,13,16,55,15.90
2020,03,13,16,56,28.70
2020,03,13,16,57,17.60
2020,03,13,16,58,10.00
2020,03,13,16,59,13.90
2020,03,13,17,00,6.20
2020,03,13,17,01,12.80
2020,03,13,17,02,19.20
2020,03,13,17,03,30.30
2020,03,13,17,04,7.90
2020,03,13,17,05,4.10
2020,03,13,17,06,4.30
2020,03,13,17,07,8.60
2020,03,13,17,08,7.20
2020,03,13,17,09,12.20
2020,03,13,17,10,14.30
2020,03,13,17,11,22.40
2020,03,13,17,12,34.60
2020,03,13,17,13,21.60
2020,03,13,17,14,16.50
2020,03,13,17,15,15.40
2020,03,13,17,16,4.10
2020,03,13,17,17,0.60
2020,03,13,17,18,3.40
2020,03,13,17,19,11.20
2020,03,13,17,20,7.00
2020,03,13,17,21,6.70
2020,03,13,17,22,13.70
2020,03,13,17,23,8.00
2020,03,13,17,24,1.30
2020,03,13,17,25,2.40
2020,03,13,17,26,8.30
2020,03,13,17,27,12.80
2020,03,13,17,28,13.00
2020,03,13,17,29,7.90
2020,03,13,17,30,9.10
2020,03,13,17,31,15.80
2020,03,13,17,32,15.20
2020,03,13,17,33,13.80
2020,03,13,17,34,17.10
2020,03,13,17,35,9.40
2020,03,13,17,36,12.90
2020,03,13,17,37,2.30
2020,03,13,17,38,10.40
2020,03,13,17,39,19.10
2020,03,13,17,40,17.70
2020,03,13,17,41,18.40
2020,03,13,17,42,2.20
2020,03,13,17,43,0.70
2020,03,13,17,44,1.30
2020,03,13,17,45,0.10
2020,03,13,17,46,5.50
2020,03,13,17,47,2.50
2020,03,13,17,48,1.20
2020,03,13,17,49,25.20
2020,03,13,17,50,21.40
2020,03,13,17,51,12.20
2020,03,13,17,52,10.80
2020,03,13,17,53,6.60
2020,03,13,17,54,10.70
2020,03,13,17,55,5.80